Regional Weather Roundup
Issued by NWS Northern Indiana

Home | Current Version | Previous Version | Graphics & Text | Print | Product List | Glossary On
Versions: 1 2 3 4 5 6 7 8 9 10 11 12 13 14 15 16 17 18 19 20 21 22 23 24 25 26 27 28 29 30 31 32 33 34 35 36 37 38 39 40 41 42 43 44 45 46 47 48 49 50
000
ASUS43 KIWX 230810
RWRIWX

KIWX WEATHER ROUNDUP
NATIONAL WEATHER SERVICE NORTHERN INDIANA
300 AM EST FRI FEB 23 2018

NOTE: "FAIR" INDICATES FEW OR NO CLOUDS BELOW 12,000 FEET WITH NO
SIGNIFICANT WEATHER AND/OR OBSTRUCTIONS TO VISIBILITY.

* THESE STATIONS ARE NOT UNDER NWS QUALITY CONTROL. THEY ALSO MAY NOT
  REPORT WEATHER SUCH AS PRECIPITATION OR FOG.

INZ001>027-230900-
NORTHERN INDIANA

CITY           SKY/WX    TMP DP  RH WIND       PRES   REMARKS
GARY*          CLOUDY    39  38  94 SE12      30.22F FOG
VALPARAISO     CLOUDY    38  36  92 SE12      30.24F FOG
MICHIGAN CITY* CLOUDY    36  36 100 SE6       30.23F
LAPORTE*       CLOUDY    36  35  98 SE13      30.24F FOG
SOUTH BEND     CLOUDY    35  34  96 E13       30.25F FOG     WCI  26
GOSHEN         CLOUDY    36  34  92 E15       30.27F FOG
MONTICELLO*    CLOUDY    37  36  95 E6        30.23F FOG
LOGANSPORT*    FOG       36  36 100 E8        30.26F VSB 1
ROCHESTER*     CLOUDY    37  37 100 E13       30.26F FOG
WARSAW*        CLOUDY    34  34 100 MISG      30.27F FOG
AUBURN*        CLOUDY    34  34 100 E9        30.32F FOG     WCI  26
FORT WAYNE     DRZL/FOG  36  36 100 NE12      30.31S VSB 1
HUNTINGTON*    CLOUDY    35  34  96 NE8       30.29S FOG     WCI  28
PERU/GRISSOM   FOG       37  37 100 E12       30.24F VSB 1
MARION*        FOG       38  38 100 CALM      30.26F VSB 3/4

$$
INZ028>050-230900-
CENTRAL INDIANA

CITY           SKY/WX    TMP DP  RH WIND       PRES   REMARKS
LAFAYETTE      CLOUDY    44  44 100 E10       30.21F FOG
KOKOMO*        FOG       38  38 100 NE8       30.26R VSB 3/4
MUNCIE*        CLOUDY    45  43  93 SE10      30.24F FOG
INDIANAPOLIS   CLOUDY    44  44 100 SE9       30.23F FOG

$$
MIZ043>046-050>051-056>058-064>065-071>073-077>080-230900-
SOUTHWEST LOWER MICHIGAN

CITY           SKY/WX    TMP DP  RH WIND       PRES   REMARKS
BATTLE CREEK   CLOUDY    35  33  92 E9        30.29F FOG     WCI  28
BENTON HARBOR  CLOUDY    37  33  85 SE12      30.25F
COLDWATER*     CLOUDY    34  34 100 E12G17    30.29F FOG     WCI  26
HILLSDALE*     CLOUDY    32  32 100 E10       30.30F FOG     WCI  24
HOLLAND        CLOUDY    37  32  82 E12       30.27F
GRAND RAPIDS   CLOUDY    34  28  79 E9        30.31F WCI  27
KALAMAZOO      CLOUDY    36  33  89 SE12      30.28F
STURGIS*       CLOUDY    35  34  96 SE12G20   30.27F FOG     WCI  27
THREE RIVERS*  CLOUDY    35  34  96 SE9       30.28F WCI  28

$$
OHZ001>008-015>018-024>025-230900-
NORTHWEST OHIO

CITY           SKY/WX    TMP DP  RH WIND       PRES   REMARKS
WAUSEON*       CLOUDY    34  34 100 N10       30.36R FOG     WCI  26
DEFIANCE       CLOUDY    34  32  92 N10       30.34R FOG     WCI  26
FINDLAY        CLOUDY    37  35  92 E5        30.31F FOG
TOLEDO EXPRESS CLOUDY    34  34 100 N8        30.35F FOG     WCI  27
TOLEDO METCALF CLOUDY    35  33  92 E6        30.34F FOG     WCI  30
LIMA           CLOUDY    38  38 100 E6        30.29F FOG

$$
AND FOR LAKE MICHIGAN COASTAL AND OPEN LAKE BUOY OBSERVATIONS

STATION/POSITION TEMP    WIND        PRES    VSBY  WAVE
                 AIR SEA DIR/SP/G                  HT/PER
                 (F)     (DEG/KT/KT) (MB)    (MI)  (FT/S)
CALUMET HARBOR    38     120/ 10/ 13 1022.6F
MICHIGAN CITY     37     110/ 13/ 20   N/A
BURNS HARBOR      38     120/  9/ 17 1023.7F
SAINT JOSEPH      37     100/  3/  8 1023.7

$$
&&



USA.gov is the U.S. government's official web portal to all federal, state and local government web resources and services.